Flag for Canada Weather past 2 weeks in Colchester County, Nova Scotia, Canada

55 °F

Partly sunny.

Feels Like: 54 °F
Forecast: 33 / 56 °F
Wind: 6 mph from Southwest

Location: Halifax International Airport

Current Time: Oct 9, 2015 at 2:04:27 PM

Latest Report: Oct 9, 2015 at 1:00 PM

Visibility: 15 mi

Pressure: 30.05 "Hg

Humidity: 51%

Dew point: 37 °F

Location of Colchester CountyLocation

Historic Weather in Colchester County — Graph


Colchester County temperature yesterday

Maximum temperature yesterday: 57 °F (at 4:00 PM)
Minimum temperature yesterday: 43 °F (at 11:00 PM)
Average temperature yesterday: 50 °F

Past Weeks' High & Low Weather Summary

High75 °F (Sep 29, 3:00 PM)100% (Sep 26, 6:00 AM)30.49 "Hg (Sep 26, 6:00 AM)
Low36 °F (Oct 4, 5:00 AM)35% (Sep 27, 4:00 PM)29.77 "Hg (Oct 7, 4:00 PM)
Average54 °F82%30.18 "Hg
* Reported Sep 24 12:00 Noon — Oct 9 12:00 Noon, Colchester County, Weather by CustomWeather, © 2015

Note: Actual official high and low records may vary slightly from our data, if they occured in-between our weather recording intervals... More about our weather records


Colchester County weather history for previous 24 hours

Time TempWeatherWind HumidityBarometerVisibility
12:00 PM
Fri, Oct 9
55 °FPartly sunny.12 mph51%30.08 "Hg15 mi
11:00 AM54 °FPartly sunny.8 mph51%30.10 "Hg15 mi
10:00 AM50 °FPassing clouds.8 mph58%30.11 "Hg15 mi
9:00 AM46 °FScattered clouds.7 mph76%30.10 "Hg15 mi
8:00 AM41 °FPassing clouds.5 mph87%30.10 "Hg15 mi
7:00 AM39 °FPassing clouds.3 mph87%30.09 "Hg15 mi
6:00 AM41 °FPassing clouds.5 mph81%30.09 "Hg15 mi
5:00 AM41 °FPassing clouds.5 mph87%30.08 "Hg15 mi
4:00 AM41 °FPassing clouds.3 mph87%30.09 "Hg15 mi
3:00 AM41 °FPassing clouds.6 mph93%30.10 "Hg15 mi
2:00 AM43 °FClear.7 mph87%30.10 "Hg15 mi
1:00 AM43 °FClear.6 mph81%30.09 "Hg15 mi
12:00 AM43 °FClear.7 mph81%30.10 "Hg15 mi
11:00 PM
Thu, Oct 8
43 °FClear.6 mph81%30.09 "Hg15 mi
10:00 PM45 °FClear.6 mph76%30.09 "Hg15 mi
9:00 PM45 °FClear.7 mph76%30.08 "Hg15 mi
8:00 PM46 °FPassing clouds.6 mph76%30.07 "Hg15 mi
6:00 PM54 °FScattered clouds.8 mph58%30.02 "Hg15 mi
5:00 PM55 °FScattered clouds.14 mph51%30.00 "Hg15 mi
4:00 PM57 °FPassing clouds.14 mph48%29.98 "Hg15 mi
3:00 PM55 °FPassing clouds.9 mph51%29.97 "Hg15 mi
2:00 PM55 °FPassing clouds.14 mph51%29.97 "Hg15 mi
Weather by CustomWeather, © 2015

See weather overviewHow to use our weather pages